This demonstration page uses our WeatherBlox Daily Observations layout. Learn more.

Left ArrowRight Arrow

Hourly Observations for July 28, 2018

Temp ( °F °C ) Dew Point ( °F °C ) Humidity (%) Winds ( mph kmh ) Pressure ( in mb ) Visibility ( mi km ) Precip ( " mm )
12:53 am 00:53 Cloudy with Haze 79 26.1 59 15 50 50 NNE 5 7 29.83 1010 6 10 0.00 0.00
1:53 am 01:53 Cloudy 80 26.7 58 14.4 47 47 Calm 29.84 1010 7 11 0.00 0.00
2:53 am 02:53 Cloudy 78 25.6 58 14.4 50 50 Calm 29.84 1010 7 11 0.00 0.00
3:53 am 03:53 Cloudy 78 25.6 58 14.4 50 50 Calm 29.84 1010 7 11 0.00 0.00
4:53 am 04:53 Cloudy 76 24.4 60 15.6 58 58 Calm 29.84 1011 7 11 0.00 0.00
5:53 am 05:53 Cloudy with Haze 75 23.9 59 15 58 58 Calm 29.85 1011 6 10 0.00 0.00
6:53 am 06:53 Cloudy with Haze 72 22.2 59 15 64 64 Calm 29.86 1011 5 8 0.00 0.00
7:53 am 07:53 Cloudy with Haze 74 23.3 60 15.6 62 62 Calm 29.87 1011 5 8 0.00 0.00
8:53 am 08:53 Mostly Cloudy with Haze 78 25.6 57 13.9 48 48 Calm 29.87 1011 5 8 0.00 0.00
9:53 am 09:53 Cloudy with Haze 85 29.4 53 11.7 33 33 Calm 29.87 1011 4 6 0.00 0.00
10:53 am 10:53 Cloudy with Haze 87 30.6 51 10.6 29 29 NW 3 6 29.86 1011 3 5 0.00 0.00
11:53 am 11:53 Mostly Cloudy with Haze 88 31.1 56 13.3 34 34 WSW 3 6 29.86 1011 3 5 0.00 0.00
12:53 pm 12:53 Mostly Cloudy with Haze 91 32.8 52 11.1 26 26 SSW 3 6 29.84 1011 3 5 0.00 0.00
1:40 pm 13:40 Cloudy with Haze 93 33.9 49 9.4 22 22 Calm 29.83 1010 3 5 0.00 0.00
1:50 pm 13:50 Cloudy with Haze 93 34 50 10 23 23 S 3 6 29.83 1010 3 5 0.00 0.00
1:53 pm 13:53 Cloudy with Haze 93 33.9 50 10 23 23 Calm 29.83 1010 3 5 0.00 0.00
2:40 pm 14:40 Cloudy with Haze 94 34.4 50 10 22 22 SSW 6 9 29.80 1009 3 5 0.00 0.00
2:53 pm 14:53 Mostly Cloudy with Haze 95 35 48 8.9 20 20 WSW 5 7 29.82 1010 3 5 0.00 0.00
3:29 pm 15:29 Hazy 96 35.6 47 8.3 19 19 SSE 3 6 29.80 1009 3 5 0.00 0.00
3:53 pm 15:53 Hazy 98 36.7 47 8.3 17 17 SSE 6 9 29.80 1009 3 5 0.00 0.00
4:53 pm 16:53 Cloudy with Haze 98 36.7 48 8.9 18 18 S 5 7 29.79 1009 3 4 0.00 0.00
5:11 pm 17:11 Cloudy with Haze 98 36.7 45 7.2 16 16 S 5 7 29.77 1008 3 5 0.00 0.00
5:22 pm 17:22 Cloudy with Haze 98 36.7 46 7.8 17 17 S 6 9 29.77 1008 3 4 0.00 0.00
5:29 pm 17:29 Cloudy with Haze 99 37.2 46 7.8 16 16 SSE 6 9 29.77 1008 3 4 0.00 0.00
5:32 pm 17:32 Cloudy with Haze 99 37.2 46 7.8 16 16 S 6 9 29.77 1008 3 5 0.00 0.00
5:53 pm 17:53 Cloudy with Haze 99 37.2 46 7.8 16 16 SSE 5 7 29.79 1009 3 5 0.00 0.00
6:53 pm 18:53 Cloudy with Haze 98 36.7 49 9.4 19 19 SE 5 7 29.79 1009 3 5 0.00 0.00
7:53 pm 19:53 Cloudy with Haze 92 33.3 52 11.1 26 26 ESE 5 7 29.80 1009 3 5 0.00 0.00
8:53 pm 20:53 Cloudy with Haze 87 30.6 58 14.4 37 37 N 3 6 29.82 1010 5 8 0.00 0.00
9:53 pm 21:53 Cloudy with Haze 85 29.4 57 13.9 39 39 N 7 11 29.84 1011 4 6 0.00 0.00
10:53 pm 22:53 Cloudy with Haze 80 26.7 57 13.9 45 45 Calm 29.86 1011 5 8 0.00 0.00
11:53 pm 23:53 Cloudy with Haze 78 25.6 57 13.9 48 48 Calm 29.87 1011 4 6 0.00 0.00

Powered by AerisWeather